EW7785 Skudeneshavn NO current weather conditions

sailwx.info

Wind from 137 at 15 knots gusting 19

Air temperature 6.7° C
Dewpoint 1.6° C

Last reported at 2019-Dec-14 14:55 UTC.
Time now 2019-Dec-14 15:24 UTC

Location: N 59°09' E 005°13'.
View on Google Maps.

See reports from other nearby stations

  
Tides and Currents Weather Stations Pressure Air Temp Water Temp Dewpoint Dewpoint Depression Visibility Wind Speed Wind Dir Waves Ship Positions
date/time (UTC)wind fromknots sea level pressurealtimeterstation pressurevisibilityair tempwater tempwave heightnotes
2019-Dec-14 15:05 132 17 gusting 20 6.7
2019-Dec-14 15:00 132 16 gusting 20 6.7
2019-Dec-14 14:55 137 15 gusting 19 6.7
2019-Dec-14 14:50 138 15 gusting 20 6.7
2019-Dec-14 14:45 136 15 gusting 20 6.7
2019-Dec-14 14:40 136 16 gusting 20 6.7
2019-Dec-14 14:35 135 16 gusting 20 6.7
2019-Dec-14 14:30 133 15 gusting 19 6.7
2019-Dec-14 14:25 132 14 gusting 19 6.7
2019-Dec-14 14:20 130 14 gusting 18 6.7
2019-Dec-14 14:15 132 13 gusting 17 6.7
2019-Dec-14 14:10 131 13 gusting 17 6.7
2019-Dec-14 14:05 133 13 gusting 16 6.7
2019-Dec-14 14:00 138 13 gusting 19 6.1
2019-Dec-14 13:55 140 14 gusting 19 6.7
2019-Dec-14 13:50 139 14 gusting 19 6.7
2019-Dec-14 13:45 140 14 gusting 19 6.7
2019-Dec-14 13:40 139 15 gusting 19 6.7
2019-Dec-14 13:35 139 16 gusting 19 6.7
2019-Dec-14 13:30 144 16 gusting 20 6.1
2019-Dec-14 13:25 144 16 gusting 20 6.7
2019-Dec-14 13:20 140 16 gusting 20 6.7
2019-Dec-14 13:15 137 15 gusting 20 6.7
2019-Dec-14 13:10 140 16 gusting 20 6.7
2019-Dec-14 13:05 141 17 gusting 22 6.7
2019-Dec-14 13:00 138 17 gusting 22 6.7
2019-Dec-14 12:55 139 17 gusting 22 6.7
2019-Dec-14 12:50 142 17 gusting 22 6.7
2019-Dec-14 12:45 142 16 gusting 20 6.7
2019-Dec-14 12:40 142 17 gusting 20 6.7
2019-Dec-14 12:35 145 17 gusting 20 6.7
2019-Dec-14 12:30 146 18 gusting 21 6.7
2019-Dec-14 12:25 146 18 gusting 25 6.7
2019-Dec-14 12:20 146 18 gusting 25 6.7
2019-Dec-14 12:15 145 17 gusting 21 6.7
2019-Dec-14 12:10 140 15 gusting 20 6.7
2019-Dec-14 12:05 142 15 gusting 20 6.7
2019-Dec-14 12:00 148 15 gusting 20 6.7
2019-Dec-14 11:55 149 14 gusting 18 6.7
2019-Dec-14 11:50 144 14 gusting 18 6.7
2019-Dec-14 11:45 140 14 gusting 19 6.7
2019-Dec-14 11:40 142 15 gusting 19 6.7
2019-Dec-14 11:35 145 14 gusting 18 6.7
2019-Dec-14 11:30 146 14 gusting 17 6.7
2019-Dec-14 11:25 144 15 gusting 19 6.7
2019-Dec-14 11:20 143 15 gusting 19 6.7
2019-Dec-14 11:15 146 15 gusting 19 6.7
2019-Dec-14 11:10 146 15 gusting 19 6.7
2019-Dec-14 11:05 145 15 gusting 19 6.7
2019-Dec-14 11:00 145 16 gusting 19 6.7
2019-Dec-14 10:55 145 18 gusting 25 6.7
2019-Dec-14 10:50 140 19 gusting 25 6.7
2019-Dec-14 10:45 134 19 gusting 24 6.7
2019-Dec-14 10:40 134 19 gusting 26 6.7
2019-Dec-14 10:35 133 20 gusting 26 6.7
2019-Dec-14 10:30 131 21 gusting 26 6.7
2019-Dec-14 10:25 134 21 gusting 26 6.7
2019-Dec-14 10:20 133 22 gusting 29 6.7
2019-Dec-14 10:15 131 24 gusting 29 6.7
2019-Dec-14 10:10 129 25 gusting 29 6.7
2019-Dec-14 10:05 126 24 gusting 29 6.7
2019-Dec-14 10:00 127 25 gusting 31 6.7
2019-Dec-14 09:55 128 25 gusting 31 6.7
2019-Dec-14 09:50 126 25 gusting 31 6.7
2019-Dec-14 09:45 125 24 gusting 30 6.7
2019-Dec-14 09:40 124 24 gusting 30 6.7
2019-Dec-14 09:35 125 24 gusting 31 6.7
2019-Dec-14 09:30 122 22 gusting 31 6.7
2019-Dec-14 09:25 117 21 gusting 30 6.7
2019-Dec-14 09:20 119 21 gusting 30 6.7
2019-Dec-14 09:05 119 20 gusting 26 6.7
2019-Dec-14 09:00 123 19 gusting 26 6.7
2019-Dec-14 08:55 123 19 gusting 26 6.7
2019-Dec-14 08:50 124 19 gusting 26 6.7
2019-Dec-14 08:45 124 19 gusting 26 6.7
2019-Dec-14 08:40 123 19 gusting 26 6.7
2019-Dec-14 08:35 124 19 gusting 26 6.7
2019-Dec-14 08:30 123 20 gusting 26 6.7
2019-Dec-14 08:25 123 21 gusting 26 6.7
2019-Dec-14 08:20 126 21 gusting 26 6.7
2019-Dec-14 08:15 127 22 gusting 27 6.1
2019-Dec-14 08:10 128 22 gusting 27 6.1
2019-Dec-14 08:05 132 22 gusting 27 6.7
2019-Dec-14 08:00 132 21 gusting 27 6.7
2019-Dec-14 07:55 130 22 gusting 27 6.7
2019-Dec-14 07:50 128 22 gusting 27 6.7
2019-Dec-14 07:45 129 21 gusting 26 6.7
2019-Dec-14 07:40 134 21 gusting 26 6.7
2019-Dec-14 07:35 137 21 gusting 26 6.1
2019-Dec-14 07:30 141 21 gusting 26 6.1
2019-Dec-14 07:25 143 21 gusting 26 6.1
2019-Dec-14 07:20 142 20 gusting 25 6.1
2019-Dec-14 07:15 142 20 gusting 25 6.1
2019-Dec-14 07:10 142 20 gusting 25 6.1
2019-Dec-14 07:05 141 19 gusting 25 6.1
2019-Dec-14 07:00 140 18 gusting 24 6.1
2019-Dec-14 06:55 142 19 gusting 26 6.1
2019-Dec-14 06:50 143 18 gusting 26 6.1
2019-Dec-14 06:45 141 17 gusting 22 6.1
2019-Dec-14 06:40 138 18 gusting 25 6.7
2019-Dec-14 06:35 137 19 gusting 25 6.7
2019-Dec-14 06:30 139 19 gusting 25 6.7
2019-Dec-14 06:25 137 19 gusting 25 6.7
2019-Dec-14 06:20 132 19 gusting 25 6.7
2019-Dec-14 06:15 128 20 gusting 25 6.7
2019-Dec-14 06:10 129 21 gusting 26 6.7
2019-Dec-14 06:05 129 22 gusting 29 6.7
2019-Dec-14 06:00 126 22 gusting 29 6.7
2019-Dec-14 05:55 124 22 gusting 29 6.7
2019-Dec-14 05:50 125 24 gusting 32 6.7
2019-Dec-14 05:45 127 24 gusting 32 6.7
2019-Dec-14 05:40 125 21 gusting 30 6.7
2019-Dec-14 05:35 127 22 gusting 29 6.7
2019-Dec-14 05:30 127 24 gusting 29 6.7
2019-Dec-14 05:25 127 24 gusting 30 6.7
2019-Dec-14 05:20 128 24 gusting 30 6.7
2019-Dec-14 05:15 126 25 gusting 32 6.7
2019-Dec-14 05:10 125 25 gusting 32 6.7
2019-Dec-14 05:05 125 26 gusting 33 6.7
2019-Dec-14 05:00 124 24 gusting 33 6.7
2019-Dec-14 04:55 124 21 gusting 30 6.1
2019-Dec-14 04:50 123 24 gusting 29 6.7
2019-Dec-14 04:45 123 22 gusting 29 6.1
2019-Dec-14 04:40 126 24 gusting 30 6.1
2019-Dec-14 04:35 125 25 gusting 30 6.1
2019-Dec-14 04:30 124 24 gusting 31 6.1
2019-Dec-14 04:25 122 22 gusting 31 6.1
2019-Dec-14 04:20 119 21 gusting 30 6.1
2019-Dec-14 04:15 120 20 gusting 27 6.1
2019-Dec-14 04:10 123 21 gusting 27 6.1
2019-Dec-14 04:05 123 21 gusting 27 6.1
2019-Dec-14 04:00 124 22 gusting 29 6.1
2019-Dec-14 03:55 129 25 gusting 31 6.1
2019-Dec-14 03:50 134 26 gusting 32 6.1
2019-Dec-14 03:45 133 26 gusting 33 6.1
2019-Dec-14 03:40 132 26 gusting 34 6.1
2019-Dec-14 03:35 132 27 gusting 35 6.1
2019-Dec-14 03:30 129 27 gusting 35 6.1
2019-Dec-14 03:25 128 26 gusting 33 6.1
2019-Dec-14 03:20 133 26 gusting 32 6.1
2019-Dec-14 03:15 135 26 gusting 32 6.1
2019-Dec-14 03:10 135 26 gusting 33 6.1
2019-Dec-14 03:05 137 26 gusting 34 6.1
2019-Dec-14 03:00 137 26 gusting 35 6.1
2019-Dec-14 02:55 139 27 gusting 35 6.1
2019-Dec-14 02:50 141 29 gusting 37 6.1
2019-Dec-14 02:45 143 27 gusting 37 6.1
2019-Dec-14 02:40 142 29 gusting 40 6.1
2019-Dec-14 02:35 142 29 gusting 40 6.1
2019-Dec-14 02:30 144 29 gusting 36 6.1
2019-Dec-14 02:25 145 30 gusting 35 6.1
2019-Dec-14 02:20 146 29 gusting 35 6.1
2019-Dec-14 02:15 145 29 gusting 36 6.1
2019-Dec-14 02:10 143 27 gusting 36 6.1
2019-Dec-14 02:05 144 27 gusting 35 6.1
2019-Dec-14 02:00 146 27 gusting 35 5.6
2019-Dec-14 01:55 146 29 gusting 35 6.1
2019-Dec-14 01:50 144 27 gusting 35 5.6
2019-Dec-14 01:45 142 25 gusting 33 6.1
2019-Dec-14 01:40 143 24 gusting 33 6.1
2019-Dec-14 01:35 140 22 gusting 30 6.1
2019-Dec-14 01:30 140 21 gusting 27 6.1
2019-Dec-14 01:25 146 24 gusting 30 6.1
2019-Dec-14 01:20 142 25 gusting 30 6.1
2019-Dec-14 01:15 132 24 gusting 30 6.1
2019-Dec-14 01:10 125 22 gusting 27 6.1
2019-Dec-14 01:05 127 21 gusting 27 6.1
2019-Dec-14 01:00 129 22 gusting 27 6.1
2019-Dec-14 00:55 129 24 gusting 27 6.1
2019-Dec-14 00:50 133 24 gusting 31 6.1
2019-Dec-14 00:45 136 25 gusting 31 6.1
2019-Dec-14 00:40 139 26 gusting 31 6.1
2019-Dec-14 00:35 137 27 gusting 36 6.1
2019-Dec-14 00:30 135 29 gusting 36 6.1
2019-Dec-14 00:25 138 29 gusting 36 6.1
2019-Dec-14 00:20 137 27 gusting 36 6.1
2019-Dec-14 00:15 133 27 gusting 36 6.1
2019-Dec-14 00:10 133 26 gusting 33 6.1
2019-Dec-14 00:05 136 26 gusting 34 6.1
2019-Dec-14 00:00 134 26 gusting 34 6.1
2019-Dec-13 23:55 130 26 gusting 32 6.1
2019-Dec-13 23:50 134 25 gusting 32 6.1
2019-Dec-13 23:45 140 25 gusting 31 6.1
2019-Dec-13 23:40 140 26 gusting 32 6.1
2019-Dec-13 23:35 139 26 gusting 32 6.1
2019-Dec-13 23:30 137 27 gusting 34 6.1
2019-Dec-13 23:25 138 26 gusting 34 6.1
2019-Dec-13 23:20 139 24 gusting 33 6.1
2019-Dec-13 23:15 133 21 gusting 29 6.1
2019-Dec-13 23:10 131 21 gusting 26 6.1
2019-Dec-13 23:05 131 20 gusting 26 6.1
2019-Dec-13 23:00 130 20 gusting 26 6.1
2019-Dec-13 22:55 130 21 gusting 27 6.1
2019-Dec-13 22:50 129 22 gusting 27 6.1
2019-Dec-13 22:45 127 21 gusting 26 6.1
2019-Dec-13 22:40 131 22 gusting 29 6.1
2019-Dec-13 22:35 134 22 gusting 29 6.1
2019-Dec-13 22:30 136 22 gusting 27 6.1
2019-Dec-13 22:25 140 24 gusting 30 6.1
2019-Dec-13 22:20 141 26 gusting 32 6.1
2019-Dec-13 22:15 140 26 gusting 33 6.1
2019-Dec-13 22:10 136 26 gusting 33 6.1
2019-Dec-13 22:05 136 25 gusting 33 6.1
2019-Dec-13 22:00 139 22 gusting 27 6.1
2019-Dec-13 21:55 136 22 gusting 26 6.1
2019-Dec-13 21:50 137 22 gusting 27 6.1
2019-Dec-13 21:45 139 22 gusting 27 6.1
2019-Dec-13 21:40 141 24 gusting 30 6.1
2019-Dec-13 21:35 140 25 gusting 32 5.6
2019-Dec-13 21:30 141 26 gusting 32 5.6
2019-Dec-13 21:25 141 25 gusting 31 6.1
2019-Dec-13 21:20 142 25 gusting 31 6.1
2019-Dec-13 21:15 141 26 gusting 36 6.1
2019-Dec-13 21:10 139 29 gusting 39 6.1
2019-Dec-13 21:05 140 31 gusting 42 6.1
2019-Dec-13 21:00 139 31 gusting 42 6.1
2019-Dec-13 20:55 140 27 gusting 41 6.1
2019-Dec-13 20:50 141 26 gusting 35 6.1
2019-Dec-13 20:45 140 27 gusting 35 6.1
2019-Dec-13 20:40 140 27 gusting 38 6.1
2019-Dec-13 20:35 140 26 gusting 38 6.1
2019-Dec-13 20:30 142 27 gusting 37 6.7
2019-Dec-13 20:25 144 27 gusting 37 6.1
2019-Dec-13 20:20 143 26 gusting 35 6.1
2019-Dec-13 20:15 139 26 gusting 36 6.7
2019-Dec-13 20:10 136 29 gusting 38 6.7
2019-Dec-13 20:05 136 26 gusting 38 6.7
2019-Dec-13 20:00 135 25 gusting 31 6.7
2019-Dec-13 19:55 132 26 gusting 31 6.7
2019-Dec-13 19:50 130 26 gusting 35 6.7
2019-Dec-13 19:45 131 26 gusting 35 6.7
2019-Dec-13 19:40 136 25 gusting 33 6.7
2019-Dec-13 19:35 142 24 gusting 32 6.1
2019-Dec-13 19:30 146 24 gusting 30 6.1
2019-Dec-13 19:25 145 25 gusting 34 6.7
2019-Dec-13 19:20 140 22 gusting 34 6.7
2019-Dec-13 19:15 136 20 gusting 26 6.7
2019-Dec-13 19:10 132 20 gusting 26 6.7
2019-Dec-13 19:05 129 22 gusting 26 6.7
2019-Dec-13 19:00 130 22 gusting 26 6.7
2019-Dec-13 18:55 131 21 gusting 26 6.7
2019-Dec-13 18:50 129 22 gusting 29 6.7
2019-Dec-13 18:45 130 22 gusting 29 6.7
2019-Dec-13 18:40 131 22 gusting 27 6.7
2019-Dec-13 18:35 129 25 gusting 31 6.7
2019-Dec-13 18:30 128 25 gusting 31 6.7
2019-Dec-13 18:25 126 26 gusting 31 6.7
2019-Dec-13 18:20 124 26 gusting 34 6.7
2019-Dec-13 18:15 123 25 gusting 34 6.7
2019-Dec-13 18:10 123 24 gusting 30 6.7
2019-Dec-13 18:05 127 25 gusting 33 6.7
2019-Dec-13 18:00 129 26 gusting 33 6.7
2019-Dec-13 17:55 128 26 gusting 33 6.7
2019-Dec-13 17:50 128 26 gusting 32 6.1
2019-Dec-13 17:45 128 26 gusting 32 6.1
2019-Dec-13 17:40 127 26 gusting 34 6.7
2019-Dec-13 17:35 125 26 gusting 34 6.7
2019-Dec-13 17:30 125 27 gusting 34 6.7
2019-Dec-13 17:25 126 29 gusting 35 6.7
2019-Dec-13 17:20 124 29 gusting 37 6.1
2019-Dec-13 17:15 123 27 gusting 37 6.1
2019-Dec-13 17:10 127 30 gusting 36 6.7
2019-Dec-13 17:05 127 30 gusting 36 6.7
2019-Dec-13 17:00 125 30 gusting 38 6.7
2019-Dec-13 16:55 123 29 gusting 38 6.1
2019-Dec-13 16:50 123 27 gusting 37 6.7
2019-Dec-13 16:45 124 27 gusting 37 6.1
2019-Dec-13 16:40 124 29 gusting 41 6.1
2019-Dec-13 16:35 123 32 gusting 41 6.1
2019-Dec-13 16:30 123 33 gusting 42 6.7
2019-Dec-13 16:25 124 33 gusting 42 6.7
2019-Dec-13 16:20 126 33 gusting 45 6.7
2019-Dec-13 16:15 125 32 gusting 45 6.7
2019-Dec-13 16:10 126 29 gusting 37 6.7
2019-Dec-13 16:05 127 29 gusting 36 6.7
2019-Dec-13 16:00 129 30 gusting 35 6.7
2019-Dec-13 15:55 129 32 gusting 46 6.7
2019-Dec-13 15:50 128 32 gusting 46 6.7
2019-Dec-13 15:45 128 31 gusting 39 6.7
2019-Dec-13 15:40 128 31 gusting 39 6.7
2019-Dec-13 15:35 127 31 gusting 36 6.7
2019-Dec-13 15:30 126 31 gusting 42 6.7
2019-Dec-13 15:25 126 31 gusting 42 6.7
2019-Dec-13 15:20 125 31 gusting 39 6.7
2019-Dec-13 15:15 120 31 gusting 41 6.7
2019-Dec-13 15:10 120 32 gusting 43 6.7
2019-Dec-13 15:05 122 33 gusting 43 6.7
2019-Dec-13 15:00 123 32 gusting 39 6.7
2019-Dec-13 14:55 123 31 gusting 41 6.7
2019-Dec-13 14:50 119 29 gusting 41 6.7
2019-Dec-13 14:45 118 29 gusting 38 6.7
2019-Dec-13 14:40 116 29 gusting 38 6.7
2019-Dec-13 14:35 116 29 gusting 39 6.7
2019-Dec-13 14:30 118 26 gusting 39 6.7
2019-Dec-13 14:25 117 25 gusting 36 6.7
2019-Dec-13 14:20 119 26 gusting 35 6.7
2019-Dec-13 14:15 118 26 gusting 35 6.7
2019-Dec-13 14:10 117 26 gusting 36 6.7
2019-Dec-13 14:05 119 26 gusting 36 6.7
2019-Dec-13 14:00 116 26 gusting 35 6.7
2019-Dec-13 13:55 120 26 gusting 33 6.7
2019-Dec-13 13:50 123 26 gusting 36 6.7
2019-Dec-13 13:45 122 26 gusting 36 6.7
2019-Dec-13 13:40 122 26 gusting 33 6.7
2019-Dec-13 13:35 122 26 gusting 34 6.7
2019-Dec-13 13:30 119 26 gusting 35 6.7
2019-Dec-13 13:25 120 27 gusting 35 6.7
2019-Dec-13 13:20 120 26 gusting 35 6.7
2019-Dec-13 13:15 121 27 gusting 36 6.7
2019-Dec-13 13:10 121 27 gusting 37 6.7
2019-Dec-13 13:05 124 29 gusting 37 6.7
2019-Dec-13 13:00 128 32 gusting 39 6.7
2019-Dec-13 12:55 125 31 gusting 39 6.7
2019-Dec-13 12:50 123 29 gusting 36 6.7
2019-Dec-13 12:45 125 29 gusting 36 6.7
2019-Dec-13 12:40 124 30 gusting 36 6.7
2019-Dec-13 12:35 121 30 gusting 37 6.7
2019-Dec-13 12:30 121 30 gusting 37 6.7
2019-Dec-13 12:25 123 31 gusting 38 6.7
2019-Dec-13 12:20 125 30 gusting 38 6.7
2019-Dec-13 12:15 125 30 gusting 38 6.7
2019-Dec-13 12:10 124 31 gusting 38 6.7
2019-Dec-13 12:05 124 29 gusting 36 6.7
2019-Dec-13 12:00 123 27 gusting 36 6.7
2019-Dec-13 11:55 121 29 gusting 36 6.7
2019-Dec-13 11:50 120 29 gusting 39 6.7
2019-Dec-13 11:45 122 30 gusting 39 6.7
2019-Dec-13 11:40 124 30 gusting 39 6.7
2019-Dec-13 11:35 125 30 gusting 41 6.7
2019-Dec-13 11:30 125 33 gusting 41 6.7
2019-Dec-13 11:25 126 34 gusting 43 6.7
2019-Dec-13 11:20 126 33 gusting 43 6.7
2019-Dec-13 11:15 124 33 gusting 42 6.7
2019-Dec-13 11:10 120 32 gusting 42 6.7
2019-Dec-13 11:05 122 31 gusting 39 6.7
2019-Dec-13 11:00 124 32 gusting 45 6.7
2019-Dec-13 10:55 123 31 gusting 45 6.7
2019-Dec-13 10:50 121 31 gusting 41 6.7
2019-Dec-13 10:45 122 32 gusting 42 6.7
2019-Dec-13 10:40 120 30 gusting 42 6.7
2019-Dec-13 10:35 115 29 gusting 38 6.7
2019-Dec-13 10:30 116 30 gusting 40 6.7
2019-Dec-13 10:25 116 29 gusting 41 6.7
2019-Dec-13 10:20 118 30 gusting 41 6.7
2019-Dec-13 10:15 120 32 gusting 41 6.7
2019-Dec-13 10:10 118 31 gusting 41 6.7
2019-Dec-13 10:05 120 31 gusting 40 6.7
2019-Dec-13 10:00 123 31 gusting 41 6.7
2019-Dec-13 09:55 122 31 gusting 41 6.7
2019-Dec-13 09:50 121 30 gusting 38 6.7
2019-Dec-13 09:45 120 30 gusting 37 6.7
2019-Dec-13 09:40 119 32 gusting 42 6.1
2019-Dec-13 09:35 119 31 gusting 42 6.1
2019-Dec-13 09:30 120 31 gusting 39 6.1
2019-Dec-13 09:25 119 31 gusting 39 6.1
2019-Dec-13 09:20 120 31 gusting 39 6.1
2019-Dec-13 09:15 120 31 gusting 41 6.1
2019-Dec-13 09:10 121 31 gusting 42 6.1
2019-Dec-13 09:05 124 33 gusting 42 6.1
2019-Dec-13 09:00 125 34 gusting 43 6.1
2019-Dec-13 08:55 125 33 gusting 46 6.1
2019-Dec-13 08:50 121 32 gusting 46 6.1
2019-Dec-13 08:45 120 31 gusting 46 6.1
2019-Dec-13 08:40 120 31 gusting 42 6.1
2019-Dec-13 08:35 121 32 gusting 43 6.1
2019-Dec-13 08:30 125 34 gusting 46 6.1
2019-Dec-13 08:25 122 34 gusting 46 6.1
2019-Dec-13 08:20 117 33 gusting 46 6.1
2019-Dec-13 08:15 120 33 gusting 45 6.1
2019-Dec-13 08:10 121 34 gusting 45 6.1
2019-Dec-13 08:05 115 32 gusting 42 6.1
2019-Dec-13 08:00 113 29 gusting 41 6.1
2019-Dec-13 07:55 117 29 gusting 37 6.1
2019-Dec-13 07:50 120 30 gusting 38 6.1
2019-Dec-13 07:45 118 30 gusting 40 6.1
2019-Dec-13 07:40 116 30 gusting 40 6.1
2019-Dec-13 07:35 118 32 gusting 42 6.1
2019-Dec-13 07:30 119 34 gusting 42 6.1
2019-Dec-13 07:25 121 34 gusting 41 6.1
2019-Dec-13 07:20 119 31 gusting 41 6.1
2019-Dec-13 07:15 117 29 gusting 40 6.1
2019-Dec-13 07:10 120 31 gusting 41 6.1
2019-Dec-13 07:05 119 31 gusting 41 5.6
2019-Dec-13 07:00 118 29 gusting 37 6.1
2019-Dec-13 06:55 121 31 gusting 41 6.1
2019-Dec-13 06:50 121 30 gusting 41 5.6
2019-Dec-13 06:45 120 29 gusting 38 5.6
2019-Dec-13 06:40 120 31 gusting 39 5.6
2019-Dec-13 06:35 122 30 gusting 40 5.6
2019-Dec-13 06:30 119 30 gusting 40 5.6
2019-Dec-13 06:25 115 31 gusting 38 5.6